Weather Roundup
Issued by NWS Corpus Christi, TX

Home | Current Version | Previous Version | Text Only | Print | Product List | Glossary On
Versions: 1 2 3 4 5 6 7 8 9 10 11 12 13 14 15 16 17 18 19 20 21 22 23 24 25 26 27 28 29 30 31 32 33 34 35 36 37 38 39 40 41 42 43 44 45 46 47 48 49 50
000
ASUS44 KCRP 012210
HRRCRP

SOUTH TEXAS REGIONAL WEATHER ROUNDUP
NATIONAL WEATHER SERVICE CORPUS CHRISTI TX
500 PM CDT SAT OCT 01 2016


TXZ229>244-012300-
...CORPUS CHRISTI AREA OBSERVATIONS...

CITY           SKY/WX    TMP DP  RH WIND       PRES   REMARKS
CORPUS CHRISTI CLOUDY    81  63  54 E8        29.99S
NAS CORPUS CHR CLOUDY    80  65  59 E9        29.99S
ROCKPORT       CLOUDY    79  61  53 E8        29.99F
ALICE          CLOUDY    81  61  50 N8        29.98F
FALFURRIAS     MOSUNNY   87  55  33 NE9       29.96S
$$

...VICTORIA AREA OBSERVATIONS...

CITY           SKY/WX    TMP DP  RH WIND       PRES   REMARKS
VICTORIA       MOSUNNY   80  57  45 NE9       30.01F
BEEVILLE       FAIR      80  64  57 NE3       29.99F
PLEASANTON     CLOUDY    79  53  40 CALM      30.03F
SAN ANTONIO    CLOUDY    78  52  40 CALM      30.03S
$$

...LAREDO AREA OBSERVATIONS...

CITY           SKY/WX    TMP DP  RH WIND       PRES   REMARKS
LAREDO         CLOUDY    82  55  39 NE6       30.00F
COTULLA        CLOUDY    83  53  35 VRB5      30.01F
DEL RIO        SUNNY     79  59  50 SE14      30.00F
MCALLEN        MOSUNNY   92  61  35 CALM      29.94F HX  92
HEBBRONVILLE   CLOUDY    83  55  38 N7        30.00F
$$

...OTHER TEXAS OBSERVATIONS...

CITY           SKY/WX    TMP DP  RH WIND       PRES   REMARKS
BROWNSVILLE    SUNNY     86  64  47 NE14      29.95F
HOUSTON        PTSUNNY   80  59  48 NE8       30.01F
COL. STATION   CLOUDY    75  58  55 N6        30.03F
AUSTIN         CLOUDY    78  56  46 E7        30.02F
WACO           CLOUDY    79  54  41 S9        30.02F
FORT WORTH     MOSUNNY   83  48  29 S6        30.00F
WICHITA FALLS  SUNNY     81  54  39 SE9       30.00F
LUBBOCK        MOSUNNY   82  55  39 S14G22    30.02S
EL PASO        MOSUNNY   85  43  22 W10       30.06F
$$

...MARINE OBSERVATIONS...

STATION/POSITION TIME  SKY/WX   TEMP    WIND        PRES    VSBY  WAVE   SWELL
                                AIR SEA DIR/SP/G                  HT/PER HT/PER
                 (UTC)          (F)     (DEG/KT/KT) (MB)    (MI)  (FT/S) (FT/S)
PORT ARANSAS     2200            78 83   50/  7/  8 1015.8F
BUOY 90 E PORT A 2150            80 86   40/  8/ 10 1015.1F         2/ 5   2/ 5
BUOY 45 SE BAFFI 2150            79 84   30/  8/ 10 1014.7F         1/ 6   2/ 6
BUOY 200 E PT IS 2150            83 87   30/  6/  8 1012.7F         2/ 5   2/ 5
BUOY 15 E GALVES 2150            78 84   40/ 12/ 14 1016.3F         2/ 4
$$




USA.gov is the U.S. government's official web portal to all federal, state and local government web resources and services.